Weather History for PACD - February, 2013

Change the Weather History Date:

Thursday, February 7, 2013

  Actual Average Record
Temperature  
Mean Temperature 36 °F 29 °F  
Max Temperature 39 °F 33 °F 45 °F (1957)
Min Temperature 33 °F 24 °F 2 °F (2008)
Degree Days  
Heating Degree Days 29 36  
Month to date heating degree days 218 257  
Since 1 July heating degree days 5635 5473  
Cooling Degree Days 0    
Month to date cooling degree days 0  
Year to date cooling degree days 0  
Moisture  
Dew Point 32 °F    
Average Humidity 86    
Maximum Humidity 93    
Minimum Humidity 70    
Precipitation  
Precipitation 0.07 in 0.10 in 0.54 in (1949)
Month to date precipitation 0.42 0.74  
Year to date precipitation 4.01 3.90  
Snow  
Snow T in 0.40 in 2.30 in (1996)
Month to date snowfall 2.4 3.2  
Since 1 July snowfall 43.1 42.5  
Snow Depth T in    
Sea Level Pressure  
Sea Level Pressure 29.14 in    
Wind  
Wind Speed 14 mph (SSE)    
Max Wind Speed 30 mph    
Max Gust Speed 35 mph    
Visibility 9 miles    
Events Rain , Snow    
T = Trace of Precipitation, MM = Missing Value Source: NWS Daily Summary

Daily Weather History Graph

Daily Weather History Graph

Search for Another Location

Airport or City:

Trip Planner

Search our weather history database for the weather conditions in past years. The results will help you decide how hot, cold, wet, or windy it might be!

Date:

Astronomy

Feb. 07, 2013 Rise Set
Actual Time 9:29 AM AKST 6:41 PM AKST
Civil Twilight 8:50 AM AKST 7:20 PM AKST
Nautical Twilight 8:07 AM AKST 8:03 PM AKST
Astronomical Twilight 7:25 AM AKST 8:45 PM AKST
Moon 7:35 AM AKST (2/7) 4:05 PM AKST (2/7)
Length of Visible Light 10h 29m
Length of Day
9h 11m
Waning Crescent, 8% of the Moon is Illuminated
Feb 7
Waning Crescent
Feb 9
New
Feb 17
First Quarter
Feb 25
Full
Mar 4
Last Quarter

Hourly Weather History & Observations

Time (AKST) Temp. Windchill Dew Point Humidity Pressure Visibility Wind Dir Wind Speed Gust Speed Precip Events Conditions
12:53 AM 36.0 °F 24.4 °F 33.1 °F 89% 29.14 in 10.0 mi SSE 23.0 mph - N/A   Partly Cloudy
1:53 AM 36.0 °F 24.4 °F 33.1 °F 89% 29.15 in 9.0 mi SSE 23.0 mph - N/A   Mostly Cloudy
3:53 AM 36.0 °F 27.5 °F 33.1 °F 89% 29.12 in 10.0 mi SE 12.7 mph - N/A   Overcast
4:20 AM 35.6 °F 25.9 °F 33.8 °F 93% 29.10 in 10.0 mi SE 16.1 mph - N/A   Overcast
4:30 AM 35.6 °F 25.5 °F 33.8 °F 93% 29.09 in 10.0 mi SE 17.3 mph - N/A   Overcast
4:53 AM 36.0 °F 27.5 °F 33.1 °F 89% 29.08 in 9.0 mi SE 12.7 mph - 0.00 in Rain Light Rain
5:00 AM 35.6 °F 25.2 °F 33.8 °F 93% 29.07 in 8.0 mi SE 18.4 mph 23.0 mph 0.00 in Rain Light Rain
5:07 AM 35.6 °F 24.0 °F 33.8 °F 93% 29.08 in 8.0 mi SSE 23.0 mph 31.1 mph 0.01 in Rain Light Rain
5:12 AM 35.6 °F 24.2 °F 32.0 °F 87% 29.07 in 5.0 mi SSE 21.9 mph 31.1 mph 0.01 in Snow Light Snow
5:53 AM 34.0 °F 25.0 °F 32.0 °F 92% 29.08 in 10.0 mi SSE 12.7 mph - 0.02 in   Overcast
6:14 AM 35.6 °F 26.2 °F 30.2 °F 81% 29.06 in 10.0 mi SSE 15.0 mph 21.9 mph N/A   Mostly Cloudy
6:39 AM 33.8 °F 27.7 °F 32.0 °F 93% 29.05 in 9.0 mi ESE 6.9 mph - 0.00 in   Mostly Cloudy
6:46 AM 35.6 °F 29.2 °F 32.0 °F 87% 29.05 in 10.0 mi SE 8.1 mph - 0.00 in   Scattered Clouds
6:53 AM 35.1 °F 27.9 °F 32.0 °F 89% 29.06 in 10.0 mi SSE 9.2 mph - 0.00 in   Scattered Clouds
7:53 AM 34.0 °F 26.6 °F 30.9 °F 89% 29.07 in 10.0 mi SSE 9.2 mph - N/A   Mostly Cloudy
8:53 AM 35.1 °F - 30.0 °F 82% 29.09 in 10.0 mi Calm Calm - N/A   Overcast
9:53 AM 34.0 °F 25.5 °F 30.9 °F 89% 29.12 in 10.0 mi WSW 11.5 mph - N/A   Mostly Cloudy
10:53 AM 36.0 °F 31.1 °F 30.0 °F 79% 29.15 in 10.0 mi SSW 5.8 mph - N/A   Mostly Cloudy
11:53 AM 37.0 °F 34.5 °F 30.9 °F 79% 29.15 in 10.0 mi NNE 3.5 mph - N/A   Overcast
12:53 PM 37.0 °F - 30.9 °F 79% 29.17 in 10.0 mi Calm Calm - N/A   Scattered Clouds
1:53 PM 39.0 °F 31.4 °F 30.0 °F 70% 29.16 in 10.0 mi South 12.7 mph 21.9 mph N/A   Mostly Cloudy
2:53 PM 37.9 °F 28.9 °F 33.1 °F 83% 29.16 in 10.0 mi SE 16.1 mph - N/A   Mostly Cloudy
3:53 PM 37.0 °F 27.7 °F 33.1 °F 86% 29.14 in 10.0 mi SE 16.1 mph 21.9 mph 0.00 in   Clear
4:53 PM 37.0 °F 28.1 °F 30.9 °F 79% 29.16 in 10.0 mi SE 15.0 mph 23.0 mph N/A   Clear
5:53 PM 37.0 °F 28.5 °F 32.0 °F 82% 29.17 in 10.0 mi SSE 13.8 mph 21.9 mph N/A   Overcast
6:53 PM 37.0 °F 25.4 °F 32.0 °F 82% 29.16 in 10.0 mi SSE 25.3 mph 33.4 mph N/A   Clear
7:22 PM 37.4 °F 26.1 °F 33.8 °F 87% 29.18 in 7.0 mi SSE 24.2 mph - 0.01 in Rain Light Rain
7:53 PM 37.0 °F 27.0 °F 34.0 °F 89% 29.19 in 6.0 mi SE 18.4 mph - 0.01 in Rain Rain
8:03 PM 35.6 °F 25.2 °F 33.8 °F 93% 29.18 in 8.0 mi SSE 18.4 mph - 0.03 in Rain Light Rain
8:27 PM 35.6 °F 26.2 °F 32.0 °F 87% 29.19 in 10.0 mi SSE 15.0 mph 24.2 mph 0.03 in   Mostly Cloudy
8:53 PM 34.0 °F 25.0 °F 32.0 °F 92% 29.20 in 10.0 mi SE 12.7 mph - 0.03 in   Mostly Cloudy
9:53 PM 36.0 °F 26.7 °F 34.0 °F 93% 29.21 in 10.0 mi SE 15.0 mph - 0.00 in Rain Light Rain
10:13 PM 35.6 °F 23.7 °F 33.8 °F 93% 29.20 in 10.0 mi SSE 24.2 mph 27.6 mph 0.00 in Rain Light Rain
10:53 PM 37.0 °F 25.9 °F 34.0 °F 89% 29.22 in 8.0 mi SE 23.0 mph 31.1 mph 0.01 in   Overcast
11:14 PM 37.4 °F 25.9 °F 33.8 °F 87% 29.20 in 10.0 mi SE 25.3 mph 32.2 mph 0.00 in   Overcast
11:31 PM 37.4 °F 25.4 °F 33.8 °F 87% 29.20 in 10.0 mi SSE 27.6 mph 33.4 mph 0.00 in   Scattered Clouds
11:53 PM 37.0 °F 25.4 °F 33.1 °F 86% 29.22 in 10.0 mi SSE 25.3 mph 33.4 mph 0.00 in   Clear